User: anonymous   Login
Location: Bangkok
(13.7500°N, 100.5170°E)
Time: 22:24:21
(UTC+07:00)
Language:

Cosmos 1898 Rocket - Orbit

View from above orbital plane
View from above orbital plane
View from above satellite
View from above satellite

Ground track
Ground track

The orbit data is extracted from the following two-line orbital elements,

1 18586U 87098B   15187.82306734  .00000051  00000-0  26236-4 0  9994
2 18586 074.0056 165.1064 0020414 026.7526 059.0005 14.36633751445207
Epoch (UTC): 06 July 2015 19:45:13
Eccentricity: 0.0020414
inclination: 74.0056°
perigee height: 755 km
apogee height: 784 km
right ascension of ascending node: 165.1064°
argument of perigee: 26.7526°
revolutions per day: 14.36633751
mean anomaly at epoch: 59.0005°
orbit number at epoch: 44520

The dashed part of the orbit path shows where the satellite is in the earth's shadow,  

DLR